[[{"header":{"parameterUnit":"m.s-1","parameterCategory":1,"la1":30.2991,"la2":30.254,"lo1":-89.0895,"lo2":-89.0444,"dy":0.0017,"dx":0.0017,"nx":28,"ny":28,"refTime":"2025-09-02T03:00:00:Z","depth":0,"parameterNumber":2,"parameterNumberName":"U-component_of_WINDS"},"data":[0,0,0,0,0,0,0,0,0,0,0,0,0,0,0,0,0,0,0,0,0,0,0,0,0,0,0,0,0,0,0,0,0,0,0,0,0,0,0,0,0,0,0,0,0,0,0,0,0,0,0,0,0,0,0,0,0,0,-1.0931,-1.0932,0,-1.0986,-1.0986,-1.0987,-1.0944,-1.0942,-1.0941,-1.0939,-1.0996,-1.0999,-1.1003,0,0,0,0,0,0,0,0,0,0,0,0,0,-1.0792,-1.0795,-1.0931,-1.0932,-1.0933,-1.0986,-1.0986,-1.0987,-1.0945,-1.0942,-1.094,-1.0938,-1.0995,-1.0999,-1.1003,0,0,0,0,0,0,0,0,0,0,0,0,0,-1.085,-1.0796,-1.0931,-1.0918,-1.0917,-1.0986,-1.0986,-1.0987,-1.0945,-1.0942,-1.094,-1.0937,-1.0994,-1.0999,-1.1003,-1.1088,0,0,-1.1018,-1.102,0,0,0,0,0,0,0,0,-1.0847,-1.0855,-1.0919,-1.0919,-1.0918,-1.0955,-1.0958,-1.1021,-1.0946,-1.0935,-1.0939,-1.0936,-1.0985,-1.099,-1.1007,-1.1091,-1.1093,-1.1019,-1.1022,-1.1024,-1.1025,0,0,0,0,0,0,0,-1.0843,-1.0853,-1.0953,-1.092,-1.092,-1.091,-1.0915,-1.097,-1.0975,-1.0935,-1.0932,-1.0939,-1.0984,-1.1002,-1.1008,-1.1094,-1.1018,-1.1023,-1.1026,-1.1028,-1.1251,-1.1254,0,0,0,0,0,0,-1.084,-1.085,-1.0951,-1.0955,-1.0875,-1.0914,-1.092,-1.0946,-1.0974,-1.0975,-1.0942,-1.0937,-1.0995,-1.1002,-1.101,-1.1111,-1.1024,-1.1028,-1.1031,-1.1248,-1.1252,-1.1255,0,0,0,0,0,0,-1.0837,-1.085,-1.0949,-1.0901,-1.0913,-1.092,-1.0949,-1.0949,-1.0967,-1.0979,-1.0979,-1.0959,-1.0993,-1.1003,-1.1069,-1.1113,-1.103,-1.1035,-1.1245,-1.1249,-1.1253,-1.1316,0,0,0,0,0,0,-1.0833,-1.0849,-1.0881,-1.0902,-1.0916,-1.1008,-1.0952,-1.0952,-1.0975,-1.097,-1.0995,-1.0997,-1.0992,-1.1062,-1.1074,-1.1118,-1.1039,-1.1241,-1.1247,-1.1252,-1.131,-1.1322,-1.1332,0,0,0,0,0,-1.0829,-1.0897,-1.0883,-1.0895,-1.0956,-1.101,-1.1018,-1.1011,-1.0979,-1.1011,-1.1019,-1.0996,-1.1106,-1.1069,-1.1082,-1.1128,-1.1238,-1.1245,-1.1252,-1.1305,-1.1319,-1.1332,0,0,0,0,0,0,-1.0881,-1.0899,-1.0884,-1.0961,-1.0984,-1.1003,-1.1044,-1.1026,-1.106,-1.1053,-1.1043,-1.1049,-1.1119,-1.113,-1.1089,-1.1212,-1.1167,-1.1177,-1.1203,-1.1217,-1.1228,-1.1224,-1.1043,0,0,0,0,0,-1.0901,-1.0943,-1.0957,-1.1023,-1.1036,-1.1038,-1.1061,-1.1053,-1.1077,-1.1087,-1.1099,-1.1124,-1.1164,-1.119,-1.1228,-1.131,-1.1316,-1.1348,-1.1359,-1.1369,-1.1378,-1.1423,-1.1438,-1.1278,-1.1277,-1.1277,0,0,-1.0944,-1.0959,-1.0986,-1.1034,-1.1051,-1.1095,-1.1046,-1.1095,-1.1128,-1.1094,-1.1158,-1.1168,-1.1194,-1.1269,-1.1303,-1.1281,-1.1423,-1.1377,-1.1384,-1.1389,-1.1431,-1.1446,-1.146,-1.1282,-1.1281,-1.1281,0,0,-1.1045,-1.106,-1.1117,-1.1135,-1.1162,-1.1162,-1.1176,-1.1197,-1.1202,-1.1266,-1.1241,-1.128,-1.1349,-1.1369,-1.1389,-1.1496,-1.1476,-1.1508,-1.1567,-1.1611,-1.1624,-1.1635,-1.1674,-1.1688,-1.1517,-1.1517,-1.1517,0,-1.1095,-1.116,-1.1149,-1.12,-1.1222,-1.1192,-1.1251,-1.1269,-1.1306,-1.1322,-1.1296,-1.1382,-1.1398,-1.1477,-1.1504,-1.152,-1.1536,-1.1506,-1.1623,-1.1634,-1.1644,-1.1681,-1.1696,-1.1521,-1.152,-1.152,-1.152,0,-1.1221,-1.1267,-1.131,-1.1346,-1.1373,-1.1427,-1.1424,-1.1453,-1.1442,-1.1446,-1.1511,-1.1528,-1.1569,-1.1587,-1.1577,-1.1665,-1.165,-1.1624,-1.1578,-1.1663,-1.1698,-1.1712,-1.1526,-1.1525,-1.1524,-1.1523,0,0,-1.1358,-1.1387,-1.1403,-1.1419,-1.1446,-1.1481,-1.1533,-1.1572,-1.1597,-1.1624,-1.1668,-1.1727,-1.1702,-1.1724,-1.1716,-1.1754,-1.1839,-1.1723,-1.1723,-1.1745,-1.1938,-1.1959,-1.1976,-1.1826,-1.1828,-1.183,-1.1936,0,-1.1461,-1.1553,-1.1544,-1.1631,-1.1674,-1.1646,-1.1691,-1.1713,-1.1717,-1.1754,-1.1759,-1.1801,-1.1764,-1.1778,-1.1814,-1.1821,-1.1878,-1.1813,-1.1868,-1.187,-1.1864,-1.1994,-1.2017,-1.2116,-1.195,-1.1952,-1.1954,0,-1.1594,-1.1625,-1.1716,-1.1736,-1.1753,-1.1795,-1.183,-1.1865,-1.1888,-1.1889,-1.1913,-1.1898,-1.1952,-1.1904,-1.1977,-1.1933,-1.1955,-1.1962,-1.1965,-1.1972,-1.1919,-1.2005,-1.2147,-1.2163,-1.1975,-1.1973,-1.1972,0,-1.1687,-1.1751,-1.1814,-1.1828,-1.1852,-1.1882,-1.1894,-1.1914,-1.1938,-1.1969,-1.1984,-1.2021,-1.2041,-1.207,-1.2066,-1.2031,-1.2141,-1.2093,-1.2144,-1.2144,-1.217,-1.2169,-1.2319,-1.2181,-1.2181,-1.2181,-1.2181,0,-1.1804,-1.1861,-1.1856,-1.1895,-1.1958,-1.1947,-1.201,-1.2018,-1.2036,-1.2077,-1.2054,-1.2093,-1.2084,-1.2122,-1.2119,-1.2181,-1.219,-1.2192,-1.2191,-1.2195,-1.2195,-1.2211,-1.2204,-1.2185,-1.2184,-1.2183,-1.2183,0,-1.1919,-1.1917,-1.1984,-1.2001,-1.2007,-1.2053,-1.2068,-1.2105,-1.2106,-1.2158,-1.2169,-1.2172,-1.2216,-1.2214,-1.2264,-1.2261,-1.2338,-1.2328,-1.2331,-1.2329,-1.2381,-1.2377,-1.2548,-1.257,-1.2417,-1.2418,-1.2419,0,-1.1995,-1.2038,-1.2059,-1.2085,-1.2098,-1.2139,-1.2163,-1.2153,-1.2179,-1.2209,-1.2243,-1.2284,-1.2317,-1.2388,-1.2395,-1.2433,-1.2425,-1.2482,-1.243,-1.2433,-1.2427,-1.2425,-1.243,-1.2493,-1.2494,-1.2496,-1.2497,0,-1.213,-1.2127,-1.2162,-1.2197,-1.2227,-1.2254,-1.2279,-1.2301,-1.2294,-1.2324,-1.2368,-1.2394,-1.2444,-1.2486,-1.2522,-1.2534,-1.2515,-1.2513,-1.2527,-1.2533,-1.2533,-1.2535,-1.236,-1.2509,-1.2508,-1.2507,-1.2506,-1.2506,-1.2229,-1.2266,-1.2287,-1.2327,-1.2344,-1.2368,-1.2404,-1.241,-1.2446,-1.2486,-1.2478,-1.2528,-1.2549,-1.2596,-1.2611,-1.265,-1.263,-1.265,-1.2655,-1.2661,-1.2667,-1.2525,-1.2656,-1.2656,-1.2656,-1.2655,-1.2655,0,-1.2364,-1.2375,-1.2412,-1.2447,-1.2479,-1.2457,-1.2483,-1.2512,-1.2555,-1.2577,-1.2609,-1.266,-1.27,-1.271,-1.2749,-1.2778,-1.277,-1.2789,-1.2787,-1.2791,-1.2683,-1.2667,-1.2794,-1.2794,-1.2794,-1.2794,-1.2794,-1.2794,-1.2438,-1.25,-1.2499,-1.257,-1.2581,-1.2629,-1.2646,-1.2668,-1.2685,-1.2743,-1.2776,-1.2781,-1.2799,-1.2838,-1.2874,-1.2876,-1.2892,-1.2914,-1.2913,-1.2812,-1.2798,-1.2785,-1.277,-1.2917,-1.2917,-1.3017,-1.3018,-1.3019]},{"header":{"parameterUnit":"m.s-1","parameterCategory":1,"la1":30.2991,"la2":30.254,"lo1":-89.0895,"lo2":-89.0444,"dy":0.0017,"dx":0.0017,"nx":28,"ny":28,"refTime":"2025-09-02T03:00:00:Z","depth":0,"parameterNumber":3,"parameterNumberName":"V-component_of_WINDS"},"data":[0,0,0,0,0,0,0,0,0,0,0,0,0,0,0,0,0,0,0,0,0,0,0,0,0,0,0,0,0,0,0,0,0,0,0,0,0,0,0,0,0,0,0,0,0,0,0,0,0,0,0,0,0,0,0,0,0,0,-2.2237,-2.2238,0,-2.2309,-2.231,-2.2311,-2.2326,-2.2325,-2.2325,-2.2324,-2.2396,-2.2398,-2.2401,0,0,0,0,0,0,0,0,0,0,0,0,0,-2.2111,-2.2113,-2.2237,-2.2238,-2.2239,-2.2309,-2.231,-2.2311,-2.2326,-2.2325,-2.2325,-2.2324,-2.2395,-2.2398,-2.2401,0,0,0,0,0,0,0,0,0,0,0,0,0,-2.2172,-2.2114,-2.2237,-2.2255,-2.2257,-2.2309,-2.231,-2.2312,-2.2326,-2.2325,-2.2324,-2.2324,-2.2394,-2.2398,-2.2401,-2.244,0,0,-2.2413,-2.2414,0,0,0,0,0,0,0,0,-2.2169,-2.2177,-2.2251,-2.2254,-2.2257,-2.2308,-2.2292,-2.2355,-2.2326,-2.23,-2.2324,-2.2323,-2.2367,-2.2373,-2.2388,-2.2444,-2.2447,-2.2413,-2.2415,-2.2417,-2.2418,0,0,0,0,0,0,0,-2.2165,-2.2174,-2.2266,-2.2252,-2.2256,-2.2259,-2.2267,-2.2304,-2.2337,-2.2302,-2.2303,-2.2312,-2.2368,-2.2385,-2.239,-2.2448,-2.2413,-2.2416,-2.2418,-2.242,-2.2537,-2.2538,0,0,0,0,0,0,-2.2157,-2.217,-2.2264,-2.2268,-2.221,-2.2262,-2.227,-2.2292,-2.2337,-2.2343,-2.2312,-2.2312,-2.2379,-2.2386,-2.2393,-2.244,-2.2417,-2.242,-2.2422,-2.2537,-2.2538,-2.2539,0,0,0,0,0,0,-2.2155,-2.2166,-2.2261,-2.222,-2.2232,-2.2265,-2.2289,-2.2294,-2.231,-2.2345,-2.235,-2.2323,-2.2379,-2.2388,-2.2428,-2.2443,-2.2422,-2.2425,-2.2535,-2.2537,-2.2538,-2.2536,0,0,0,0,0,0,-2.2151,-2.2165,-2.218,-2.222,-2.2234,-2.2295,-2.229,-2.2296,-2.2317,-2.2317,-2.2356,-2.2362,-2.2379,-2.2423,-2.2432,-2.2447,-2.2428,-2.2534,-2.2536,-2.2538,-2.2535,-2.2537,-2.2539,0,0,0,0,0,-2.2146,-2.2176,-2.2181,-2.2192,-2.2254,-2.2296,-2.2304,-2.2324,-2.2318,-2.2333,-2.2355,-2.2361,-2.244,-2.2427,-2.2437,-2.2454,-2.2533,-2.2536,-2.2538,-2.2534,-2.2536,-2.2539,0,0,0,0,0,0,-2.2137,-2.2182,-2.2187,-2.2231,-2.226,-2.2299,-2.2319,-2.2326,-2.2357,-2.2356,-2.2378,-2.2386,-2.2425,-2.2444,-2.2428,-2.2493,-2.2486,-2.2491,-2.248,-2.2483,-2.2485,-2.2479,-2.2431,0,0,0,0,0,-2.214,-2.2171,-2.2208,-2.2243,-2.2258,-2.2286,-2.2305,-2.2317,-2.2348,-2.236,-2.2385,-2.2413,-2.2445,-2.2465,-2.2496,-2.2538,-2.2546,-2.2555,-2.2557,-2.2558,-2.2561,-2.2584,-2.2588,-2.2546,-2.2546,-2.2546,0,0,-2.2146,-2.2175,-2.2193,-2.2242,-2.2266,-2.2297,-2.2296,-2.2329,-2.2351,-2.2364,-2.2404,-2.2424,-2.2457,-2.2498,-2.2518,-2.2515,-2.2575,-2.2561,-2.2562,-2.2564,-2.2586,-2.259,-2.2594,-2.2547,-2.2547,-2.2547,0,0,-2.2173,-2.2199,-2.223,-2.2254,-2.229,-2.2309,-2.2316,-2.2354,-2.2368,-2.2408,-2.2418,-2.2445,-2.2499,-2.2523,-2.2541,-2.2577,-2.2583,-2.2587,-2.2597,-2.2619,-2.2622,-2.2625,-2.2637,-2.2641,-2.259,-2.259,-2.259,0,-2.2177,-2.2224,-2.2245,-2.2278,-2.2298,-2.2312,-2.2344,-2.2366,-2.241,-2.2424,-2.242,-2.2488,-2.2512,-2.2558,-2.2567,-2.2582,-2.259,-2.2582,-2.262,-2.2624,-2.2627,-2.2638,-2.2642,-2.259,-2.259,-2.259,-2.259,0,-2.2226,-2.2258,-2.2279,-2.2322,-2.2345,-2.2377,-2.2402,-2.2423,-2.2434,-2.2452,-2.2493,-2.2522,-2.2558,-2.2571,-2.2581,-2.2618,-2.2615,-2.2616,-2.2609,-2.263,-2.2641,-2.2646,-2.2591,-2.259,-2.259,-2.259,0,0,-2.2248,-2.2302,-2.2309,-2.2328,-2.2369,-2.2394,-2.2427,-2.2463,-2.248,-2.251,-2.2537,-2.2582,-2.2583,-2.2604,-2.2617,-2.2637,-2.2662,-2.2635,-2.2636,-2.2638,-2.2703,-2.2702,-2.2706,-2.2667,-2.2667,-2.2668,-2.27,0,-2.2279,-2.2337,-2.2357,-2.2405,-2.2434,-2.2448,-2.2476,-2.2504,-2.2522,-2.255,-2.257,-2.2601,-2.26,-2.2613,-2.2633,-2.2655,-2.2675,-2.2653,-2.269,-2.2692,-2.268,-2.2712,-2.2711,-2.274,-2.2705,-2.2705,-2.2706,0,-2.2323,-2.2354,-2.2404,-2.2441,-2.2454,-2.2479,-2.2513,-2.254,-2.2571,-2.2583,-2.2607,-2.2619,-2.2653,-2.2645,-2.269,-2.2674,-2.2691,-2.2704,-2.2706,-2.2709,-2.2699,-2.2715,-2.2749,-2.2753,-2.2713,-2.2713,-2.2712,0,-2.2332,-2.2387,-2.2424,-2.244,-2.2484,-2.2501,-2.252,-2.2551,-2.2571,-2.2601,-2.2614,-2.2648,-2.2666,-2.2691,-2.2712,-2.2704,-2.2755,-2.2749,-2.2765,-2.2764,-2.2774,-2.2773,-2.281,-2.2787,-2.2787,-2.2787,-2.2787,0,-2.2364,-2.2394,-2.2429,-2.2451,-2.2485,-2.2508,-2.2541,-2.256,-2.2588,-2.2614,-2.2628,-2.2652,-2.2678,-2.2706,-2.2722,-2.2757,-2.2765,-2.2775,-2.2779,-2.2773,-2.2772,-2.2783,-2.2781,-2.2788,-2.2788,-2.2787,-2.2787,0,-2.238,-2.2405,-2.2446,-2.2484,-2.2494,-2.2518,-2.255,-2.2572,-2.2591,-2.2624,-2.2633,-2.2663,-2.2696,-2.272,-2.2762,-2.2773,-2.281,-2.2814,-2.2799,-2.2801,-2.2815,-2.2813,-2.286,-2.2867,-2.284,-2.284,-2.2841,0,-2.2398,-2.2422,-2.2463,-2.2481,-2.25,-2.2531,-2.2552,-2.2575,-2.2596,-2.2633,-2.2651,-2.2685,-2.2713,-2.2765,-2.279,-2.2823,-2.2827,-2.2841,-2.2832,-2.2825,-2.2826,-2.2823,-2.2825,-2.2842,-2.2842,-2.2842,-2.2843,0,-2.2427,-2.2438,-2.2468,-2.2502,-2.2526,-2.2554,-2.2582,-2.2596,-2.2624,-2.2647,-2.2681,-2.2703,-2.2747,-2.278,-2.2815,-2.2834,-2.2842,-2.2846,-2.2851,-2.2844,-2.2834,-2.2839,-2.2802,-2.2844,-2.2844,-2.2844,-2.2844,-2.2844,-2.2444,-2.2465,-2.2497,-2.253,-2.2553,-2.2579,-2.2601,-2.2623,-2.2652,-2.269,-2.2702,-2.2737,-2.2767,-2.2815,-2.2834,-2.2862,-2.2861,-2.2869,-2.287,-2.2872,-2.2871,-2.2831,-2.2868,-2.2868,-2.2868,-2.2868,-2.2868,0,-2.2473,-2.2494,-2.2524,-2.2562,-2.2588,-2.2595,-2.2626,-2.2646,-2.2677,-2.2705,-2.2733,-2.2771,-2.2804,-2.2832,-2.2865,-2.2882,-2.2886,-2.289,-2.2888,-2.2892,-2.287,-2.2862,-2.2885,-2.2885,-2.2885,-2.2885,-2.2885,-2.2885,-2.2491,-2.2526,-2.2541,-2.2588,-2.2609,-2.2644,-2.2661,-2.2685,-2.2707,-2.275,-2.2777,-2.2795,-2.2823,-2.2858,-2.2888,-2.2896,-2.2907,-2.2909,-2.2917,-2.2896,-2.2894,-2.2892,-2.2884,-2.2911,-2.2911,-2.2936,-2.2936,-2.2936]}]]